Weather History for Valentine, NE

Change the Weather History Date:

Saturday, December 15, 2012

  Actual Average Record
Temperature  
Mean Temperature 32 °F 23 °F  
Max Temperature 38 °F 36 °F 65 °F (2002)
Min Temperature 25 °F 11 °F -31 °F (1901)
Degree Days  
Heating Degree Days 33 42  
Month to date heating degree days 456 603  
Since 1 July heating degree days 1957 2221  
Cooling Degree Days 0 0  
Month to date cooling degree days 0 0  
Year to date cooling degree days 1303 821  
Moisture  
Dew Point 24 °F    
Average Humidity 76    
Maximum Humidity 92    
Minimum Humidity 59    
Precipitation  
Precipitation 0.01 in 0.01 in 0.14 in (1915)
Month to date precipitation 0.19 0.19  
Year to date precipitation 10.58 19.84  
Snow  
Snow 0.00 in 0.20 in 2.90 in (2005)
Month to date snowfall 0.7 2.5  
Since 1 July snowfall 11.4 10.1  
Snow Depth 0.00 in    
Sea Level Pressure  
Sea Level Pressure 29.69 in    
Wind  
Wind Speed 11 mph (NW)    
Max Wind Speed 20 mph    
Max Gust Speed 25 mph    
Visibility 9 miles    
Events      
T = Trace of Precipitation, MM = Missing Value Source: NWS Daily Summary

Daily Weather History Graph

Daily Weather History Graph

Search for Another Location

Airport:

Trip Planner

Search our weather history database for the weather conditions in past years. The results will help you decide how hot, cold, wet, or windy it might be!

Date:

Astronomy

Dec. 15, 2012 Rise Set
Actual Time 8:06 AM CST 5:08 PM CST
Civil Twilight 7:34 AM CST 5:41 PM CST
Nautical Twilight 6:58 AM CST 6:16 PM CST
Astronomical Twilight 6:23 AM CST 6:51 PM CST
Moon 9:57 AM CST (12/15) 8:18 PM CST (12/15)
Length of Visible Light 10h 06m
Length of Day
9h 02m
Waxing Crescent, 8% of the Moon is Illuminated
Dec 15
Waxing Crescent
Dec 19
First Quarter
Dec 28
Full
Jan 4
Last Quarter
Jan 11
New

Hourly Weather History & Observations

Time (CST) Temp. Windchill Dew Point Humidity Pressure Visibility Wind Dir Wind Speed Gust Speed Precip Events Conditions
12:52 AM 35.1 °F 30.1 °F 34.0 °F 96% 29.56 in 5.0 mi NW 5.8 mph - 0.00 in   Overcast
1:52 AM 36.0 °F 33.3 °F 33.1 °F 89% 29.53 in 10.0 mi North 3.5 mph - 0.01 in   Overcast
2:52 AM 30.9 °F 21.2 °F 28.0 °F 89% 29.57 in 9.0 mi NNW 12.7 mph - N/A   Overcast
3:52 AM 28.9 °F 18.6 °F 26.1 °F 89% 29.60 in 9.0 mi NNW 12.7 mph - N/A   Overcast
4:01 AM 28.4 °F 19.1 °F 26.6 °F 93% 29.55 in 9.0 mi NW 10.4 mph - N/A   Overcast
4:19 AM 28.4 °F 19.1 °F 26.6 °F 93% 29.55 in 9.0 mi NNW 10.4 mph - N/A   Overcast
4:49 AM 28.4 °F 19.1 °F 24.8 °F 86% 29.56 in 9.0 mi NNW 10.4 mph 17.3 mph N/A   Overcast
4:52 AM 28.0 °F 18.6 °F 25.0 °F 88% 29.61 in 9.0 mi NNW 10.4 mph 17.3 mph N/A   Overcast
5:34 AM 26.6 °F 17.5 °F 24.8 °F 93% 29.57 in 8.0 mi NNW 9.2 mph - N/A   Overcast
5:52 AM 26.6 °F 16.8 °F 24.8 °F 93% 29.57 in 8.0 mi NW 10.4 mph - N/A   Overcast
6:52 AM 27.0 °F 16.7 °F 23.0 °F 85% 29.65 in 10.0 mi NW 11.5 mph - N/A   Overcast
7:52 AM 25.0 °F 13.6 °F 21.0 °F 85% 29.69 in 10.0 mi NW 12.7 mph - N/A   Scattered Clouds
8:52 AM 25.0 °F 13.6 °F 21.0 °F 85% 29.72 in 10.0 mi NW 12.7 mph - N/A   Partly Cloudy
9:52 AM 27.0 °F 16.1 °F 23.0 °F 85% 29.72 in 10.0 mi NW 12.7 mph - N/A   Clear
10:52 AM 30.0 °F 18.3 °F 24.1 °F 79% 29.73 in 10.0 mi NW 17.3 mph - N/A   Clear
11:52 AM 33.1 °F 22.6 °F 25.0 °F 72% 29.71 in 10.0 mi NW 16.1 mph - N/A   Clear
12:52 PM 36.0 °F 27.1 °F 25.0 °F 64% 29.70 in 10.0 mi NW 13.8 mph - N/A   Clear
1:52 PM 37.9 °F 30.0 °F 25.0 °F 60% 29.68 in 10.0 mi NNW 12.7 mph - N/A   Clear
2:52 PM 37.9 °F 29.2 °F 24.1 °F 57% 29.72 in 10.0 mi NW 15.0 mph - N/A   Clear
3:52 PM 36.0 °F 27.5 °F 24.1 °F 62% 29.76 in 10.0 mi NW 12.7 mph 20.7 mph N/A   Clear
4:52 PM 34.0 °F 24.2 °F 21.9 °F 61% 29.79 in 10.0 mi NW 15.0 mph 21.9 mph N/A   Clear
5:52 PM 30.9 °F 22.2 °F 19.0 °F 61% 29.82 in 10.0 mi NNW 10.4 mph - N/A   Clear
6:52 PM 28.9 °F 22.8 °F 19.0 °F 67% 29.83 in 10.0 mi NW 5.8 mph - N/A   Mostly Cloudy
7:52 PM 28.9 °F 21.1 °F 19.9 °F 69% 29.83 in 10.0 mi NW 8.1 mph - N/A   Overcast
8:52 PM 28.9 °F 21.9 °F 19.9 °F 69% 29.84 in 10.0 mi NW 6.9 mph - N/A   Overcast
9:52 PM 28.0 °F 20.0 °F 19.9 °F 72% 29.82 in 10.0 mi NW 8.1 mph - N/A   Mostly Cloudy
10:52 PM 25.0 °F 15.5 °F 19.0 °F 78% 29.83 in 10.0 mi NW 9.2 mph - N/A   Clear
11:52 PM 26.6 °F 19.1 °F 19.4 °F 74% 29.74 in 10.0 mi NW 6.9 mph - N/A   Overcast